レモン彗星

349P/Lemmon (2017)

English version
Home page
Updated on September 23, 2018

---------------------------------------------------------------------

・ プロフィール

符号 349P/2017 B1
検出日 2017年1月26日
検出光度 21.0等
検出者 Pan-STARRS 1 telescope (Haleakala)

・ 写真集

・ 軌道要素

Epoch 2017 Sept. 4.0 TT = JDT 2458000.5
T 2017 Aug. 26.73339 TT                                 MPCW
q   2.4985059            (2000.0)            P               Q
n   0.14596971     Peri.  255.97823     -0.67011386     +0.74087742
a   3.5724067      Node   331.78313     -0.63871860     -0.60662554
e   0.3006099      Incl.    5.49255     -0.37813486     -0.28828130
P   6.75
From 105 observations 2010 Mar. 14-2018 Aug. 8, mean residual 0".5.

・ 光度変化

        m1 = 9.0 + 5 logΔ + 20.0 log r

---------------------------------------------------------------------

軌道要素はM.P.E.C. 2018-S50に掲載されたものです。
光度グラフはComet for Windowsで作成したものです。

---------------------------------------------------------------------

Copyright(C) Seiichi Yoshida (comet@aerith.net). All rights reserved.